Weather History for Sparta, TN

Change the Weather History Date:

Thursday, March 28, 2013

  Actual Average (KCSV) Record (KCSV)
Temperature  
Mean Temperature 38 °F 51 °F  
Max Temperature 55 °F 61 °F 80 °F (1989)
Min Temperature 21 °F 40 °F 16 °F (1955)
Degree Days  
Heating Degree Days 27    
Month to date heating degree days  
Since 1 July heating degree days  
Cooling Degree Days 0    
Month to date cooling degree days  
Year to date cooling degree days  
Moisture  
Dew Point 28 °F    
Average Humidity 72    
Maximum Humidity 100    
Minimum Humidity 38    
Precipitation  
Precipitation 0.00 in 0.18 in 1.32 in (1984)
Month to date precipitation 4.45  
Year to date precipitation 13.67  
Sea Level Pressure  
Sea Level Pressure 30.31 in    
Wind  
Wind Speed 1 mph (NNW)    
Max Wind Speed 9 mph    
Max Gust Speed -    
Visibility 10 miles    
Events      
T = Trace of Precipitation, MM = Missing Value Source: NWS Daily Summary

Daily Weather History Graph

Daily Weather History Graph

Search for Another Location

Airport:

Trip Planner

Search our weather history database for the weather conditions in past years. The results will help you decide how hot, cold, wet, or windy it might be!

Date:

Astronomy

Mar. 28, 2013 Rise Set
Actual Time 6:33 AM CDT 7:00 PM CDT
Civil Twilight 6:08 AM CDT 7:26 PM CDT
Nautical Twilight 5:37 AM CDT 7:56 PM CDT
Astronomical Twilight 5:07 AM CDT 8:27 PM CDT
Moon 8:47 PM CDT (3/28) 7:04 AM CDT (3/28)
Length of Visible Light 13h 18m
Length of Day
12h 27m
Full, 98% of the Moon is Illuminated
Mar 28
Full
Apr 2
Last Quarter
Apr 10
New
Apr 18
First Quarter
Apr 25
Full

Hourly Weather History & Observations

Time (CDT) Temp. Windchill Dew Point Humidity Pressure Visibility Wind Dir Wind Speed Gust Speed Precip Events Conditions
12:15 AM 26.6 °F - 24.8 °F 93% 30.29 in 10.0 mi Calm Calm - N/A   Clear
12:35 AM 26.6 °F - 24.8 °F 93% 30.29 in 10.0 mi Calm Calm - N/A   Clear
12:55 AM 24.8 °F - 24.8 °F 100% 30.30 in 10.0 mi Calm Calm - N/A   Clear
1:15 AM 24.8 °F - 23.0 °F 93% 30.30 in 10.0 mi Calm Calm - N/A   Clear
1:35 AM 24.8 °F - 23.0 °F 93% 30.30 in 10.0 mi Calm Calm - N/A   Clear
1:55 AM 24.8 °F - 23.0 °F 93% 30.29 in 10.0 mi Calm Calm - N/A   Clear
2:15 AM 24.8 °F - 23.0 °F 93% 30.29 in 10.0 mi Calm Calm - N/A   Clear
2:35 AM 23.0 °F - 23.0 °F 100% 30.30 in 10.0 mi Calm Calm - N/A   Clear
2:55 AM 21.2 °F - 21.2 °F 100% 30.30 in 10.0 mi Calm Calm - N/A   Clear
3:15 AM 23.0 °F - 23.0 °F 100% 30.30 in 10.0 mi Calm Calm - N/A   Clear
3:35 AM 23.0 °F - 23.0 °F 100% 30.30 in 10.0 mi Calm Calm - N/A   Clear
3:55 AM 23.0 °F - 21.2 °F 93% 30.30 in 10.0 mi Calm Calm - N/A   Clear
4:15 AM 23.0 °F - 21.2 °F 93% 30.31 in 10.0 mi Calm Calm - N/A   Clear
4:35 AM 23.0 °F - 23.0 °F 100% 30.31 in 10.0 mi Calm Calm - N/A   Clear
4:55 AM 23.0 °F - 21.2 °F 93% 30.31 in 10.0 mi Calm Calm - N/A   Clear
5:15 AM 23.0 °F - 23.0 °F 100% 30.31 in 10.0 mi Calm Calm - N/A   Clear
5:35 AM 24.8 °F - 23.0 °F 93% 30.32 in 10.0 mi Calm Calm - N/A   Clear
5:55 AM 21.2 °F - 21.2 °F 100% 30.32 in 10.0 mi Calm Calm - N/A   Clear
6:15 AM 21.2 °F - 21.2 °F 100% 30.33 in 10.0 mi Calm Calm - N/A   Clear
6:35 AM 23.0 °F - 21.2 °F 93% 30.33 in 10.0 mi Calm Calm - N/A   Clear
6:55 AM 21.2 °F - 21.2 °F 100% 30.34 in 10.0 mi Calm Calm - N/A   Clear
7:15 AM 24.8 °F - 24.8 °F 100% 30.35 in 10.0 mi Calm Calm - N/A   Clear
7:35 AM 26.6 °F - 24.8 °F 93% 30.35 in 10.0 mi Calm Calm - N/A   Partly Cloudy
7:55 AM 28.4 °F - 26.6 °F 93% 30.35 in 10.0 mi Calm Calm - N/A   Mostly Cloudy
8:15 AM 30.2 °F - 28.4 °F 93% 30.35 in 10.0 mi Calm Calm - N/A   Scattered Clouds
8:35 AM 32.0 °F - 28.4 °F 87% 30.35 in 10.0 mi Calm Calm - N/A   Partly Cloudy
8:55 AM 33.8 °F - 30.2 °F 87% 30.36 in 10.0 mi Calm Calm - N/A   Scattered Clouds
9:15 AM 35.6 °F - 28.4 °F 75% 30.36 in 10.0 mi Calm Calm - N/A   Partly Cloudy
9:35 AM 39.2 °F - 30.2 °F 70% 30.37 in 10.0 mi Calm Calm - N/A   Clear
9:55 AM 41.0 °F - 28.4 °F 61% 30.37 in 10.0 mi Calm Calm - N/A   Clear
10:15 AM 42.8 °F - 26.6 °F 53% 30.37 in 10.0 mi Calm Calm - N/A   Clear
10:35 AM 42.8 °F 41.1 °F 28.4 °F 57% 30.37 in 10.0 mi Variable 3.5 mph - N/A   Clear
10:55 AM 44.6 °F - 28.4 °F 53% 30.37 in 10.0 mi Calm Calm - N/A   Clear
11:15 AM 46.4 °F 42.9 °F 28.4 °F 50% 30.37 in 10.0 mi Variable 6.9 mph - N/A   Clear
11:35 AM 46.4 °F 42.4 °F 30.2 °F 53% 30.36 in 10.0 mi NNE 8.1 mph - N/A   Clear
11:55 AM 48.2 °F - 30.2 °F 50% 30.36 in 10.0 mi WNW 6.9 mph - N/A   Clear
12:15 PM 48.2 °F - 30.2 °F 50% 30.35 in 10.0 mi North 6.9 mph - N/A   Clear
12:35 PM 48.2 °F - 30.2 °F 50% 30.35 in 10.0 mi North 4.6 mph - N/A   Clear
12:55 PM 50.0 °F - 30.2 °F 47% 30.34 in 10.0 mi Variable 5.8 mph - N/A   Clear
1:15 PM 51.8 °F - 30.2 °F 44% 30.34 in 10.0 mi NW 8.1 mph - N/A   Clear
1:35 PM 51.8 °F - 30.2 °F 44% 30.33 in 10.0 mi WNW 6.9 mph - N/A   Clear
1:55 PM 51.8 °F - 28.4 °F 41% 30.32 in 10.0 mi Calm Calm - N/A   Clear
2:15 PM 53.6 °F - 30.2 °F 41% 30.32 in 10.0 mi Variable 4.6 mph - N/A   Clear
2:35 PM 53.6 °F - 30.2 °F 41% 30.31 in 10.0 mi Variable 4.6 mph - N/A   Clear
2:55 PM 53.6 °F - 30.2 °F 41% 30.30 in 10.0 mi Variable 6.9 mph - N/A   Clear
3:15 PM 53.6 °F - 30.2 °F 41% 30.29 in 10.0 mi North 5.8 mph - N/A   Clear
3:35 PM 53.6 °F - 30.2 °F 41% 30.28 in 10.0 mi Variable 4.6 mph - N/A   Clear
3:55 PM 55.4 °F - 30.2 °F 38% 30.27 in 10.0 mi Variable 3.5 mph - N/A   Clear
4:15 PM 55.4 °F - 30.2 °F 38% 30.27 in 10.0 mi WNW 9.2 mph - N/A   Clear
4:35 PM 55.4 °F - 30.2 °F 38% 30.27 in 10.0 mi Calm Calm - N/A   Clear
4:55 PM 55.4 °F - 30.2 °F 38% 30.27 in 10.0 mi NNW 5.8 mph - N/A   Clear
5:15 PM 55.4 °F - 30.2 °F 38% 30.27 in 10.0 mi Variable 5.8 mph - N/A   Clear
5:35 PM 55.4 °F - 30.2 °F 38% 30.27 in 10.0 mi Variable 5.8 mph - N/A   Clear
5:55 PM 53.6 °F - 30.2 °F 41% 30.27 in 10.0 mi Variable 4.6 mph - N/A   Clear
6:15 PM 53.6 °F - 30.2 °F 41% 30.27 in 10.0 mi NW 5.8 mph - N/A   Clear
6:35 PM 51.8 °F - 30.2 °F 44% 30.28 in 10.0 mi NNW 3.5 mph - N/A   Clear
6:55 PM 50.0 °F - 30.2 °F 47% 30.28 in 10.0 mi NW 3.5 mph - N/A   Clear
7:15 PM 48.2 °F - 32.0 °F 54% 30.28 in 10.0 mi Calm Calm - N/A   Clear
7:35 PM 39.2 °F - 33.8 °F 81% 30.29 in 10.0 mi Calm Calm - N/A   Clear
7:55 PM 39.2 °F - 30.2 °F 70% 30.30 in 10.0 mi Calm Calm - N/A   Clear
8:15 PM 39.2 °F - 32.0 °F 75% 30.30 in 10.0 mi Calm Calm - N/A   Clear
8:35 PM 39.2 °F - 32.0 °F 75% 30.30 in 10.0 mi Calm Calm - N/A   Clear
8:55 PM 39.2 °F - 30.2 °F 70% 30.30 in 10.0 mi Calm Calm - N/A   Clear
9:15 PM 37.4 °F - 30.2 °F 75% 30.30 in 10.0 mi Calm Calm - N/A   Clear
9:35 PM 33.8 °F - 30.2 °F 87% 30.31 in 10.0 mi Calm Calm - N/A   Clear
9:55 PM 35.6 °F - 30.2 °F 81% 30.31 in 10.0 mi Calm Calm - N/A   Clear
10:15 PM 33.8 °F - 30.2 °F 87% 30.31 in 10.0 mi Calm Calm - N/A   Clear
10:35 PM 33.8 °F - 30.2 °F 87% 30.30 in 10.0 mi Calm Calm - N/A   Clear
10:55 PM 32.0 °F - 28.4 °F 87% 30.30 in 10.0 mi Calm Calm - N/A   Clear
11:15 PM 33.8 °F - 30.2 °F 87% 30.30 in 10.0 mi Calm Calm - N/A   Clear
11:35 PM 33.8 °F - 30.2 °F 87% 30.30 in 10.0 mi Calm Calm - N/A   Partly Cloudy
11:55 PM 33.8 °F - 30.2 °F 87% 30.30 in 10.0 mi Calm Calm - N/A   Scattered Clouds